This is the latest recevied weather packets stored in our database for station/object KD8BMB. If no packets are shown the sender has not sent any weather packets the latest 10 day(s).
| Time | Temp. | Humidity | Pressure | Rain* | Wind** | Luminosity | Snow |
|---|---|---|---|---|---|---|---|
| 1777751696 | 8.89° C | 42% | 1016.2 hPa | 0 mm | - | 675 W/m² | - |
| 1777751392 | 8.89° C | 40% | 1016.3 hPa | 0 mm | - | 273 W/m² | - |
| 1777751089 | 9.44° C | 40% | 1016.5 hPa | 0 mm | - | 235 W/m² | - |
| 1777750785 | 9.44° C | 41% | 1016.4 hPa | 0 mm | - | 266 W/m² | - |
| 1777750483 | 8.89° C | 40% | 1016.6 hPa | 0 mm | - | 234 W/m² | - |
| 1777750178 | 10° C | 39% | 1016.5 hPa | 0 mm | - | 238 W/m² | - |
| 1777749875 | 8.89° C | 43% | 1016.5 hPa | 0 mm | - | 777 W/m² | - |
| 1777749572 | 8.89° C | 41% | 1016.6 hPa | 0 mm | - | 510 W/m² | - |
| 1777749270 | 8.89° C | 43% | 1016.7 hPa | 0 mm | - | 288 W/m² | - |
| 1777748967 | 8.89° C | 41% | 1016.4 hPa | 0 mm | - | 218 W/m² | - |
| 1777748664 | 8.89° C | 42% | 1016.7 hPa | 0 mm | - | 408 W/m² | - |
| 1777748360 | 8.33° C | 42% | 1016.8 hPa | 0 mm | - | 294 W/m² | - |
| 1777748056 | 8.33° C | 44% | 1016.9 hPa | 0 mm | - | 234 W/m² | - |
| 1777747753 | 8.33° C | 44% | 1017 hPa | 0 mm | - | 214 W/m² | - |
| 1777747449 | 8.33° C | 45% | 1016.9 hPa | 0 mm | - | 237 W/m² | - |
| 1777747145 | 8.89° C | 44% | 1016.7 hPa | 0 mm | - | 198 W/m² | - |
| 1777746841 | 8.89° C | 44% | 1016.8 hPa | 0 mm | - | 836 W/m² | - |
| 1777746537 | 8.89° C | 45% | 1017.1 hPa | 0 mm | - | 888 W/m² | - |
| 1777746233 | 8.89° C | 43% | 1016.9 hPa | 0 mm | - | 275 W/m² | - |
| 1777745929 | 8.89° C | 42% | 1017 hPa | 0 mm | - | 477 W/m² | - |
| 1777745628 | 8.33° C | 46% | 1017.2 hPa | 0 mm | - | 625 W/m² | - |
| 1777745325 | 8.89° C | 47% | 1017.2 hPa | 0 mm | - | 234 W/m² | - |
| 1777745022 | 8.33° C | 46% | 1017.2 hPa | 0 mm | - | 365 W/m² | - |
| 1777744718 | 7.78° C | 47% | 1017 hPa | 0 mm | - | 246 W/m² | - |
| 1777744412 | 8.33° C | 45% | 1017.1 hPa | 0 mm | - | 200 W/m² | - |
* Rain latest hour (hover to see other rain measurements)
** Current wind speed in m/s (hover to see current wind gust speed)